KB3HHA-13 Weather Reports


Display with metric or nautical units.
time (UTC)temp
F
wind
direction
speed
MPH
gust
MPH
rain 1hr
in
rain 24hr
in
rain mn
in
humidity
%
barometer
mb
20260507151201 56 45 0.0 1.0 0.00 0.09 0.06 61 1012.0
20260507150700 56 0 0.0 1.0 0.00 0.09 0.06 61 1012.2
20260507150200 55 45 0.0 0.0 0.00 0.09 0.06 63 1012.2
20260507145701 55 22 0.0 0.0 0.00 0.09 0.06 61 1012.3
20260507145200 55 0 0.0 0.0 0.00 0.09 0.06 59 1012.3
20260507144702 55 22 0.0 0.0 0.00 0.09 0.06 63 1012.3
20260507144200 55 0 0.0 0.0 0.00 0.09 0.06 63 1012.4
20260507143700 55 22 0.0 1.0 0.00 0.09 0.06 64 1012.5
20260507143201 54 45 0.0 1.0 0.00 0.09 0.06 65 1012.6
20260507142701 54 0 0.0 1.0 0.00 0.09 0.06 72 1012.5
20260507142201 54 0 0.0 1.0 0.00 0.09 0.06 71 1012.7
20260507141700 54 22 0.0 1.0 0.00 0.09 0.06 69 1012.8
20260507141211 54 45 0.0 1.0 0.00 0.09 0.06 70 1012.7
20260507140702 54 45 0.0 0.0 0.00 0.09 0.06 73 1012.8
20260507140202 53 45 0.0 1.0 0.00 0.09 0.06 74 1012.8
20260507135700 53 45 0.0 1.0 0.00 0.14 0.06 77 1012.9
20260507135201 53 45 0.0 0.0 0.00 0.14 0.06 78 1012.9
20260507134701 53 45 0.0 0.0 0.00 0.14 0.06 77 1012.9
20260507134200 53 45 0.0 0.0 0.00 0.14 0.06 79 1012.9
20260507133700 53 45 0.0 0.0 0.00 0.14 0.06 79 1012.9
20260507133200 53 22 0.0 0.0 0.00 0.14 0.06 78 1012.9
20260507132700 52 0 0.0 0.0 0.00 0.14 0.06 78 1012.9
20260507132201 52 0 0.0 0.0 0.00 0.14 0.06 79 1013.0
20260507131700 52 0 0.0 0.0 0.00 0.14 0.06 80 1013.1
20260507131200 52 0 0.0 0.0 0.00 0.14 0.06 80 1013.0
20260507130701 52 0 0.0 0.0 0.00 0.14 0.06 80 1013.0
20260507130201 52 0 0.0 1.0 0.00 0.14 0.06 81 1012.9
20260507125700 52 0 0.0 1.0 0.00 0.21 0.06 82 1013.0
20260507125200 52 0 0.0 0.0 0.00 0.21 0.06 83 1013.1
20260507124700 51 0 0.0 1.0 0.00 0.21 0.06 85 1013.0
20260507124202 52 45 0.0 1.0 0.00 0.21 0.06 91 1013.0
20260507123701 52 45 0.0 0.0 0.00 0.21 0.06 93 1013.0
20260507123200 52 45 0.0 0.0 0.00 0.21 0.06 93 1012.9
20260507122701 51 45 0.0 0.0 0.00 0.21 0.06 92 1012.9
20260507122200 51 45 0.0 0.0 0.00 0.21 0.06 91 1012.9
20260507121705 51 45 0.0 0.0 0.00 0.21 0.06 91 1012.9
20260507121200 50 45 0.0 0.0 0.00 0.21 0.06 90 1012.9
20260507120701 50 45 0.0 0.0 0.00 0.21 0.06 90 1012.8
20260507120202 50 45 0.0 0.0 0.00 0.21 0.06 90 1012.7
20260507115701 50 45 0.0 0.0 0.00 0.27 0.06 91 1012.6
20260507115200 50 45 0.0 0.0 0.00 0.27 0.06 91 1012.6
20260507114700 50 45 0.0 0.0 0.00 0.27 0.06 92 1012.6
20260507114200 50 45 0.0 0.0 0.00 0.27 0.06 92 1012.6
20260507113701 50 45 0.0 0.0 0.00 0.27 0.06 92 1012.6
20260507113201 50 45 0.0 1.0 0.00 0.27 0.06 92 1012.5
20260507112701 50 45 0.0 1.0 0.00 0.27 0.06 92 1012.5
20260507112202 50 45 0.0 0.0 0.00 0.27 0.06 92 1012.7
20260507111700 50 45 0.0 0.0 0.00 0.27 0.06 93 1012.7
20260507111201 50 45 0.0 0.0 0.00 0.27 0.06 94 1012.5
20260507110710 51 45 0.0 1.0 0.00 0.27 0.06 94 1012.6
20260507110200 51 45 0.0 1.0 0.00 0.27 0.06 95 1012.5
20260507105703 51 45 0.0 0.0 0.00 0.30 0.06 95 1012.4
20260507105201 51 45 0.0 0.0 0.00 0.30 0.06 95 1012.5
20260507104700 51 45 0.0 0.0 0.00 0.30 0.06 95 1012.4
20260507104201 51 45 0.0 0.0 0.00 0.30 0.06 95 1012.2
20260507103702 51 45 0.0 0.0 0.00 0.30 0.06 95 1012.0
20260507103201 52 45 0.0 0.0 0.00 0.30 0.06 96 1012.0
20260507102700 52 45 0.0 0.0 0.00 0.30 0.06 96 1012.2
20260507102202 52 45 0.0 0.0 0.00 0.30 0.06 95 1012.0
20260507101700 52 45 0.0 0.0 0.00 0.30 0.06 95 1011.9
20260507101202 52 45 0.0 0.0 0.00 0.30 0.06 95 1011.8
20260507100701 52 45 0.0 0.0 0.00 0.30 0.06 95 1011.7
20260507100202 52 45 0.0 0.0 0.00 0.30 0.06 95 1011.7
20260507095701 52 45 0.0 0.0 0.00 0.30 0.06 95 1011.6
20260507095201 52 45 0.0 0.0 0.00 0.30 0.06 96 1011.7
20260507094701 52 45 0.0 0.0 0.00 0.30 0.06 95 1011.7
20260507094201 52 45 0.0 0.0 0.00 0.30 0.06 95 1011.6
20260507093700 53 45 0.0 0.0 0.00 0.30 0.06 95 1011.6
20260507093202 53 45 0.0 0.0 0.00 0.30 0.06 96 1011.7
20260507092703 53 45 0.0 0.0 0.00 0.30 0.06 96 1011.6
20260507092201 53 45 0.0 0.0 0.00 0.30 0.06 96 1011.5
20260507091701 53 45 0.0 0.0 0.00 0.30 0.06 96 1011.5
20260507091202 53 45 0.0 0.0 0.00 0.30 0.06 96 1011.5
20260507090700 53 45 0.0 0.0 0.00 0.30 0.06 95 1011.5
20260507090201 53 45 0.0 0.0 0.00 0.30 0.06 95 1011.5
20260507085702 53 45 0.0 0.0 0.00 0.30 0.06 96 1011.6
20260507085201 53 45 0.0 0.0 0.00 0.30 0.06 96 1011.6
20260507084700 53 45 0.0 0.0 0.00 0.30 0.06 96 1011.5
20260507084201 54 45 0.0 0.0 0.00 0.30 0.06 96 1011.4
20260507083701 54 45 0.0 0.0 0.00 0.30 0.06 96 1011.3
20260507083200 54 45 0.0 0.0 0.00 0.30 0.06 96 1011.5
20260507082700 53 45 0.0 0.0 0.00 0.30 0.06 96 1011.3
20260507082201 53 45 0.0 0.0 0.00 0.30 0.06 96 1011.3
20260507081701 53 45 0.0 0.0 0.00 0.30 0.06 95 1011.1
20260507081201 53 45 0.0 0.0 0.00 0.30 0.06 95 1011.0
20260507080702 53 45 0.0 0.0 0.00 0.30 0.06 95 1010.8
20260507080200 53 45 0.0 0.0 0.00 0.30 0.06 95 1010.8
20260507075701 53 45 0.0 0.0 0.01 0.30 0.06 95 1010.7
20260507075201 54 45 0.0 0.0 0.01 0.30 0.06 95 1010.8
20260507074701 54 45 0.0 0.0 0.01 0.30 0.06 95 1010.7
20260507074200 54 45 0.0 0.0 0.01 0.30 0.06 95 1010.7
20260507073703 54 45 0.0 0.0 0.01 0.30 0.06 95 1010.6
20260507073202 54 45 0.0 0.0 0.01 0.30 0.06 95 1010.6
20260507072701 54 45 0.0 0.0 0.01 0.30 0.06 95 1010.5
20260507072201 54 45 0.0 0.0 0.01 0.30 0.06 95 1010.6
20260507071701 54 45 0.0 0.0 0.01 0.30 0.06 95 1010.7
20260507071201 54 45 0.0 0.0 0.01 0.30 0.06 95 1010.7
20260507070700 54 45 0.0 0.0 0.01 0.30 0.06 95 1010.7
20260507070200 55 45 0.0 0.0 0.00 0.29 0.05 95 1010.7
20260507065700 55 45 0.0 0.0 0.04 0.29 0.05 95 1010.7
20260507065202 55 22 0.0 0.0 0.04 0.29 0.05 95 1010.6
20260507064700 55 45 0.0 0.0 0.04 0.29 0.05 95 1010.8
20260507064200 56 45 0.0 0.0 0.04 0.29 0.05 95 1010.8
20260507063701 56 45 0.0 1.0 0.03 0.28 0.04 95 1011.0
20260507063202 56 45 0.0 1.0 0.03 0.28 0.04 95 1011.0
20260507062700 56 45 0.0 1.0 0.00 0.25 0.01 95 1011.1
20260507062200 56 45 0.0 0.0 0.00 0.25 0.01 95 1011.2
20260507061700 56 45 0.0 0.0 0.00 0.25 0.01 95 1011.0
20260507061200 56 45 0.0 0.0 0.00 0.25 0.01 95 1010.9
20260507060701 56 45 0.0 1.0 0.00 0.25 0.01 95 1010.7
20260507060200 56 45 0.0 1.0 0.00 0.25 0.01 95 1010.8
20260507055700 56 45 0.0 1.0 0.00 0.25 0.01 95 1011.0
20260507055201 56 45 0.0 0.0 0.00 0.25 0.01 95 1010.9
20260507054701 56 45 0.0 0.0 0.00 0.25 0.01 94 1010.8
20260507054203 56 45 0.0 0.0 0.00 0.25 0.01 94 1010.9
20260507053700 56 45 0.0 0.0 0.00 0.25 0.01 94 1010.9
20260507053200 56 45 0.0 0.0 0.00 0.25 0.01 94 1010.9
20260507052700 56 45 0.0 0.0 0.00 0.25 0.01 94 1011.0
20260507052202 56 45 0.0 0.0 0.00 0.25 0.01 94 1010.9
20260507051701 56 45 0.0 0.0 0.00 0.25 0.01 94 1010.9
20260507051201 56 45 0.0 0.0 0.00 0.25 0.01 94 1010.9
20260507050701 56 45 0.0 0.0 0.00 0.25 0.01 93 1011.3
20260507050200 56 45 0.0 0.0 0.00 0.25 0.01 93 1011.1
20260507045700 56 45 0.0 0.0 0.01 0.25 0.01 93 1010.8
20260507045202 56 45 0.0 2.0 0.01 0.25 0.01 93 1010.5
20260507044701 57 45 0.0 2.0 0.01 0.25 0.01 93 1011.0
20260507044201 57 45 0.0 1.0 0.01 0.25 0.01 92 1011.0
20260507043700 57 45 0.0 0.0 0.01 0.25 0.01 92 1011.2
20260507043201 57 45 0.0 0.0 0.01 0.25 0.01 91 1011.0
20260507042700 57 45 0.0 2.0 0.01 0.25 0.01 91 1010.7
20260507042200 57 67 0.0 2.0 0.00 0.24 0.00 90 1010.8
20260507041701 57 90 0.0 3.0 0.00 0.24 0.00 90 1011.0
20260507041201 58 67 0.0 3.0 0.00 0.24 0.00 90 1011.0
20260507040702 58 45 0.0 0.0 0.00 0.24 0.00 89 1011.0
20260507040202 58 45 0.0 0.0 0.00 0.24 0.00 89 1011.0
20260507035702 59 22 0.0 1.0 0.03 0.24 0.24 87 1010.8
20260507035203 59 45 0.0 4.0 0.03 0.24 0.24 86 1010.7
20260507034701 60 22 1.0 4.0 0.02 0.23 0.23 86 1010.6
20260507034203 60 0 0.0 2.0 0.02 0.23 0.23 84 1010.5
20260507033701 61 45 0.0 2.0 0.01 0.22 0.22 83 1010.3
20260507033200 61 45 0.0 3.0 0.00 0.21 0.21 84 1010.3
20260507032701 61 45 1.0 3.0 0.00 0.21 0.21 85 1010.5
20260507032201 61 45 0.0 1.0 0.00 0.21 0.21 86 1010.4
20260507031700 61 22 0.0 0.0 0.00 0.21 0.21 86 1010.4
20260507031200 61 0 0.0 0.0 0.00 0.21 0.21 85 1010.3
20260507030701 62 0 0.0 0.0 0.00 0.21 0.21 84 1010.3
20260507030200 62 0 0.0 0.0 0.00 0.21 0.21 83 1010.4
20260507025701 62 0 0.0 0.0 0.00 0.21 0.21 82 1010.3
20260507025201 62 0 0.0 1.0 0.00 0.21 0.21 81 1009.9
20260507024700 62 45 0.0 1.0 0.00 0.21 0.21 80 1009.8
20260507024202 62 45 0.0 2.0 0.00 0.21 0.21 80 1009.8
20260507023701 62 45 0.0 3.0 0.00 0.21 0.21 81 1009.8
20260507023200 62 45 0.0 3.0 0.00 0.21 0.21 81 1010.0
20260507022700 63 45 0.0 3.0 0.00 0.21 0.21 82 1009.7
20260507022200 63 45 0.0 4.0 0.00 0.21 0.21 82 1009.8
20260507021702 63 45 0.0 4.0 0.00 0.21 0.21 82 1009.7
20260507021200 63 45 0.0 2.0 0.00 0.21 0.21 82 1009.7
20260507020700 63 0 0.0 1.0 0.00 0.21 0.21 82 1009.7
20260507020202 63 22 0.0 1.0 0.00 0.21 0.21 82 1009.6
20260507015701 63 45 0.0 4.0 0.00 0.21 0.21 81 1009.5
20260507015200 64 45 0.0 4.0 0.00 0.21 0.21 81 1009.6
20260507014702 64 45 0.0 2.0 0.00 0.21 0.21 82 1009.7
20260507014200 64 22 0.0 2.0 0.00 0.21 0.21 82 1009.7
20260507013701 64 22 0.0 2.0 0.00 0.21 0.21 83 1009.4
20260507013200 64 45 0.0 2.0 0.00 0.21 0.21 84 1009.6
20260507012700 64 45 0.0 1.0 0.00 0.21 0.21 84 1009.6
20260507012200 65 0 0.0 2.0 0.00 0.21 0.21 85 1009.4
20260507011702 65 45 0.0 3.0 0.00 0.21 0.21 85 1009.5
20260507011202 65 67 0.0 3.0 0.00 0.21 0.21 84 1009.6
20260507010703 65 67 0.0 4.0 0.00 0.21 0.21 84 1009.7
20260507010200 66 45 1.0 5.0 0.00 0.21 0.21 83 1009.7
20260507005701 66 45 2.0 5.0 0.00 0.21 0.21 84 1009.5
20260507005200 66 22 0.0 4.0 0.00 0.21 0.21 84 1009.7
20260507004701 67 90 0.0 4.0 0.00 0.21 0.21 83 1009.8
20260507004200 67 45 0.0 5.0 0.00 0.21 0.21 83 1009.6
20260507003701 67 67 0.0 5.0 0.00 0.21 0.21 82 1009.5
20260507003201 67 45 1.0 6.0 0.00 0.21 0.21 83 1009.3
20260507002700 68 67 1.0 6.0 0.00 0.21 0.21 82 1009.2
20260507002200 68 67 2.0 5.0 0.00 0.21 0.21 82 1009.2
20260507001700 68 67 2.0 5.0 0.00 0.21 0.21 85 1009.2
20260507001201 68 67 0.0 0.0 0.00 0.21 0.21 85 1009.0
20260507000700 68 90 0.0 0.0 0.00 0.21 0.21 84 1008.8
20260507000204 68 90 0.0 0.0 0.00 0.21 0.21 84 1008.7
20260506235702 68 90 0.0 0.0 0.00 0.21 0.21 84 1008.7
20260506235200 69 90 0.0 0.0 0.00 0.21 0.21 83 1008.5
20260506234700 69 90 0.0 0.0 0.00 0.21 0.21 83 1008.5
20260506234201 69 90 0.0 0.0 0.00 0.21 0.21 83 1008.5
20260506233701 69 90 0.0 0.0 0.00 0.21 0.21 82 1008.4
20260506233201 69 90 0.0 0.0 0.00 0.21 0.21 82 1008.2
20260506232702 69 90 0.0 0.0 0.00 0.21 0.21 82 1008.1
20260506232201 69 90 0.0 0.0 0.00 0.21 0.21 81 1008.2
20260506231702 69 90 0.0 1.0 0.00 0.21 0.21 81 1008.2
20260506231202 70 90 0.0 2.0 0.00 0.21 0.21 81 1008.2
20260506230703 70 90 0.0 2.0 0.00 0.21 0.21 81 1008.0
20260506230201 70 90 0.0 2.0 0.00 0.21 0.21 81 1007.9
20260506225701 70 90 0.0 2.0 0.00 0.21 0.21 81 1008.0
20260506225201 70 90 0.0 2.0 0.00 0.21 0.21 81 1008.0
20260506224701 70 90 1.0 3.0 0.00 0.21 0.21 81 1008.0
20260506224200 70 90 0.0 3.0 0.00 0.21 0.21 81 1008.0
20260506223702 70 90 0.0 3.0 0.00 0.21 0.21 81 1008.0
20260506223201 69 67 0.0 1.0 0.00 0.21 0.21 81 1007.9
20260506222700 69 90 0.0 1.0 0.00 0.21 0.21 81 1007.8
20260506222200 69 90 0.0 1.0 0.00 0.21 0.21 81 1007.8
20260506221701 69 90 0.0 1.0 0.00 0.21 0.21 81 1007.8
20260506221202 69 90 0.0 1.0 0.00 0.21 0.21 80 1007.9
20260506220702 69 90 0.0 1.0 0.00 0.21 0.21 80 1008.0
20260506220200 69 90 0.0 1.0 0.00 0.21 0.21 80 1008.0
20260506215701 69 90 0.0 3.0 0.00 0.21 0.21 80 1007.9
20260506215201 70 67 0.0 4.0 0.00 0.21 0.21 79 1008.0
20260506214701 70 67 0.0 4.0 0.00 0.21 0.21 79 1008.0
20260506214200 70 67 0.0 5.0 0.00 0.21 0.21 79 1008.0
20260506213700 70 90 1.0 5.0 0.00 0.21 0.21 78 1008.0
20260506213201 70 67 2.0 5.0 0.00 0.21 0.21 78 1007.9
20260506212701 70 90 0.0 3.0 0.00 0.21 0.21 78 1007.8
20260506212201 70 90 0.0 5.0 0.00 0.21 0.21 78 1007.7
20260506211702 70 67 2.0 5.0 0.00 0.21 0.21 77 1007.6
20260506211200 70 90 1.0 5.0 0.00 0.21 0.21 77 1007.6
20260506210701 71 90 1.0 5.0 0.00 0.21 0.21 76 1007.5
20260506210201 71 90 0.0 6.0 0.00 0.21 0.21 76 1007.5
20260506205700 71 90 2.0 6.0 0.00 0.21 0.21 77 1007.4
20260506205202 71 90 1.0 7.0 0.00 0.21 0.21 77 1007.4
20260506204700 71 90 2.0 9.0 0.00 0.21 0.21 77 1007.3
20260506204201 71 90 2.0 9.0 0.00 0.21 0.21 76 1007.4
20260506203700 71 67 1.0 5.0 0.00 0.21 0.21 76 1007.4
20260506203201 71 90 0.0 5.0 0.00 0.21 0.21 76 1007.2
20260506202701 71 67 1.0 4.0 0.00 0.21 0.21 77 1007.4
20260506202200 71 67 1.0 5.0 0.00 0.21 0.21 77 1007.3
20260506201701 71 90 0.0 6.0 0.00 0.21 0.21 76 1007.5
20260506201201 71 90 0.0 6.0 0.00 0.21 0.21 76 1007.5
20260506200700 71 67 1.0 9.0 0.00 0.21 0.21 76 1007.6
20260506200201 71 90 1.0 9.0 0.00 0.21 0.21 74 1007.5
20260506195700 71 67 3.0 9.0 0.00 0.21 0.21 75 1007.4
20260506195200 71 90 1.0 7.0 0.00 0.21 0.21 76 1007.5
20260506194702 71 112 2.0 11.0 0.00 0.21 0.21 74 1007.4
20260506194200 71 90 4.0 11.0 0.00 0.21 0.21 75 1007.5
20260506193700 71 112 2.0 9.0 0.00 0.21 0.21 75 1007.5
20260506193201 71 67 4.0 9.0 0.00 0.21 0.21 75 1007.6
20260506192701 71 90 1.0 8.0 0.00 0.21 0.21 76 1007.6
20260506192200 71 67 3.0 8.0 0.00 0.21 0.21 76 1007.6
20260506191701 70 90 2.0 8.0 0.00 0.21 0.21 77 1007.6
20260506191201 70 90 2.0 9.0 0.00 0.21 0.21 77 1007.7
20260506190700 70 135 2.0 9.0 0.00 0.21 0.21 77 1007.7
20260506190200 70 90 2.0 9.0 0.00 0.21 0.21 78 1007.7
20260506185700 69 90 2.0 8.0 0.00 0.21 0.21 78 1007.6
20260506185202 69 90 2.0 10.0 0.00 0.21 0.21 79 1007.8
20260506184700 69 112 4.0 10.0 0.00 0.21 0.21 79 1007.8
20260506184200 68 112 3.0 11.0 0.00 0.21 0.21 80 1007.8
20260506183700 68 67 4.0 11.0 0.00 0.21 0.21 80 1008.0
20260506183201 68 135 4.0 9.0 0.00 0.21 0.21 81 1008.1
20260506182702 68 112 4.0 9.0 0.00 0.21 0.21 80 1008.1
20260506182202 68 90 2.0 7.0 0.00 0.21 0.21 80 1008.0
20260506181700 68 90 3.0 7.0 0.00 0.21 0.21 81 1008.2
20260506181202 68 90 2.0 7.0 0.00 0.21 0.21 81 1008.2
20260506180702 68 90 2.0 6.0 0.00 0.21 0.21 81 1008.1
20260506180200 68 90 2.0 9.0 0.00 0.21 0.21 82 1008.2
20260506175700 67 90 2.0 9.0 0.00 0.21 0.21 82 1008.2
20260506175200 67 90 3.0 8.0 0.00 0.21 0.21 82 1008.2
20260506174702 67 67 2.0 11.0 0.00 0.21 0.21 83 1008.3
20260506174200 67 90 1.0 11.0 0.00 0.21 0.21 83 1008.2
20260506173700 67 112 2.0 11.0 0.00 0.21 0.21 83 1008.4
20260506173201 66 90 3.0 11.0 0.00 0.21 0.21 84 1008.3
20260506172701 66 112 3.0 9.0 0.00 0.21 0.21 85 1008.3
20260506172203 66 112 3.0 7.0 0.00 0.21 0.21 85 1008.3
20260506171700 65 90 3.0 10.0 0.00 0.21 0.21 86 1008.2
20260506171202 65 112 3.0 11.0 0.00 0.21 0.21 86 1008.3
20260506170701 65 112 4.0 11.0 0.00 0.21 0.21 87 1008.3
20260506170202 65 112 2.0 11.0 0.00 0.21 0.21 87 1008.5
20260506165700 64 135 4.0 9.0 0.00 0.21 0.21 88 1008.5
20260506165200 64 135 4.0 11.0 0.00 0.21 0.21 88 1008.5
20260506164701 64 90 2.0 11.0 0.00 0.21 0.21 89 1008.5
20260506164203 64 90 2.0 6.0 0.00 0.21 0.21 89 1008.5
20260506163701 64 112 2.0 7.0 0.00 0.21 0.21 89 1008.5
20260506163200 64 90 3.0 11.0 0.00 0.21 0.21 90 1008.6
20260506162701 63 112 1.0 12.0 0.00 0.21 0.21 91 1008.7
20260506162200 63 135 2.0 12.0 0.00 0.21 0.21 91 1008.7
20260506161701 63 112 4.0 11.0 0.00 0.21 0.21 92 1008.7
20260506161201 63 67 1.0 6.0 0.00 0.21 0.21 92 1008.7
20260506160700 63 112 0.0 5.0 0.00 0.21 0.21 92 1008.6
20260506160200 62 112 2.0 8.0 0.00 0.21 0.21 92 1008.8
20260506155700 62 90 2.0 8.0 0.00 0.21 0.21 92 1008.8
20260506155200 62 112 2.0 7.0 0.00 0.21 0.21 93 1008.9
20260506154700 62 135 2.0 7.0 0.00 0.21 0.21 93 1008.9
20260506154202 62 90 3.0 8.0 0.00 0.21 0.21 93 1008.7
20260506153700 62 90 3.0 8.0 0.00 0.21 0.21 94 1008.7
20260506153201 61 90 2.0 9.0 0.00 0.21 0.21 94 1008.7
20260506152701 61 112 3.0 9.0 0.00 0.21 0.21 93 1008.8
20260506152201 61 90 3.0 7.0 0.00 0.21 0.21 94 1008.8
20260506151700 61 90 2.0 8.0 0.00 0.21 0.21 94 1009.0